Ourzdine, Morocco

11:48 PM WEST on September 21, 2017 (GMT +0100)
Ourzdine

Weather History for 60230 - November, 2013

Change the Weather History Date:

Friday, November 15, 2013

  Actual Average Record
Temperature  
Mean Temperature 66 °F -  
Max Temperature 79 °F 67 °F - ()
Min Temperature 52 °F 46 °F - ()
Growing Degree Days 16 (Base 50)    
Moisture  
Dew Point 46 °F    
Average Humidity 50    
Maximum Humidity 72    
Minimum Humidity 20    
Precipitation  
Precipitation 0.00 in 0.05 in - ()
Sea Level Pressure  
Sea Level Pressure 30.02 in    
Wind  
Wind Speed 4 mph ()    
Max Wind Speed 10 mph    
Max Gust Speed -    
Visibility 6.0 miles    
Events      
T = Trace of Precipitation, MM = Missing Value Source: Averaged Metar Reports

Daily Weather History Graph

Daily Weather History Graph

Search for Another Location

Airport or City:

Trip Planner

Search our weather history database for the weather conditions in past years. The results will help you decide how hot, cold, wet, or windy it might be!

Date:

Astronomy

Nov. 15, 2013 Rise Set
Actual Time 7:00 AM WET 5:33 PM WET
Civil Twilight 6:34 AM WET 5:58 PM WET
Nautical Twilight 6:04 AM WET 6:28 PM WET
Astronomical Twilight 5:36 AM WET 6:57 PM WET
Moon 4:15 PM WET (11/15) 4:49 AM WET (11/15)
Length of Visible Light 11h 24m
Length of Day
10h 32m
Waxing Gibbous, 95% of the Moon is Illuminated
Nov 15
Waxing Gibbous
Nov 17
Full
Nov 25
Last Quarter
Dec 3
New
Dec 9
First Quarter

Hourly Weather History & Observations

Time (WET) Temp. Dew Point Humidity Pressure Visibility Wind Dir Wind Speed Gust Speed Precip Events Conditions
12:00 AM 60 °F 48 °F 55% 30.01 in 6 mi ENE 4.6 mph - -  
12:00 AM 59.0 °F 48.2 °F 67% 30.04 in - ENE 4.6 mph - N/A   Clear
12:30 AM 59.0 °F 48.2 °F 67% 30.04 in - East 4.6 mph - N/A   Clear
1:00 AM 59.0 °F 46.4 °F 63% 30.01 in - ESE 3.5 mph - N/A   Clear
1:30 AM 59.0 °F 44.6 °F 59% 30.01 in - SE 3.5 mph - N/A   Clear
2:00 AM 60.8 °F 44.6 °F 55% 30.01 in - ESE 5.8 mph - N/A   Clear
2:30 AM 60.8 °F 44.6 °F 55% 30.01 in - NE 3.5 mph - N/A   Clear
3:00 AM 59 °F 45 °F 48% 30.00 in 6 mi SE 2.3 mph - -  
3:00 AM 59.0 °F 44.6 °F 59% 30.01 in - SSE 2.3 mph - N/A   Clear
3:30 AM 59.0 °F 44.6 °F 59% 30.01 in 6.2 mi South 2.3 mph - N/A   Unknown
4:00 AM 57.2 °F 44.6 °F 63% 30.01 in 6.2 mi ESE 1.2 mph - N/A   Unknown
4:30 AM 55.4 °F 46.4 °F 72% 30.01 in 6.2 mi NW 2.3 mph - N/A   Unknown
5:00 AM 55.4 °F 46.4 °F 72% 30.01 in - South 2.3 mph - N/A   Clear
5:30 AM 53.6 °F 44.6 °F 72% 30.01 in - SW 2.3 mph - N/A   Clear
6:00 AM 56 °F 46 °F 61% 30.03 in 6 mi SSW 3.5 mph - -  
6:00 AM 55.4 °F 46.4 °F 72% 30.04 in - SSW 3.5 mph - N/A   Clear
6:30 AM 57.2 °F 46.4 °F 67% 30.04 in - Variable 2.3 mph - N/A   Clear
7:30 AM 55.4 °F 46.4 °F 72% 30.04 in 5.0 mi SE 1.2 mph - N/A   Unknown
8:00 AM 57.2 °F 48.2 °F 72% 30.04 in 5.0 mi Variable 1.2 mph - N/A   Unknown
8:30 AM 59.0 °F 48.2 °F 67% 30.06 in 5.0 mi ENE 3.5 mph - N/A   Unknown
9:00 AM 61 °F 49 °F 54% 30.05 in 5 mi NE 3.5 mph - -  
9:00 AM 60.8 °F 48.2 °F 63% 30.06 in 5.0 mi Variable 3.5 mph - N/A   Unknown
9:30 AM 62.6 °F 48.2 °F 59% 30.06 in 5.0 mi North 3.5 mph - N/A   Unknown
10:00 AM 64.4 °F 48.2 °F 56% 30.09 in 5.0 mi North 3.5 mph - N/A   Unknown
11:00 AM 71.6 °F 50.0 °F 46% 30.09 in 6.2 mi ESE 3.5 mph - N/A   Partly Cloudy
11:30 AM 73.4 °F 50.0 °F 44% 30.06 in 6.2 mi Variable 2.3 mph - N/A   Partly Cloudy
11:45 AM 74 °F 49 °F 31% 30.01 in 6 mi SSW 2.3 mph - -   Scattered Clouds
12:00 PM 73.4 °F 50.0 °F 44% 30.06 in 6.2 mi Variable 2.3 mph - N/A   Partly Cloudy
12:30 PM 75.2 °F 48.2 °F 38% 30.04 in 6.2 mi Variable 3.5 mph - N/A   Partly Cloudy
1:00 PM 77.0 °F 48.2 °F 36% 30.04 in 6.2 mi South 3.5 mph - N/A   Partly Cloudy
1:30 PM 77.0 °F 48.2 °F 36% 30.01 in 6.2 mi Variable 3.5 mph - N/A   Partly Cloudy
2:00 PM 78.8 °F 46.4 °F 32% 30.01 in 6.2 mi Variable 2.3 mph - N/A   Partly Cloudy
2:30 PM 78.8 °F 46.4 °F 32% 30.01 in 6.2 mi NNE 4.6 mph - N/A   Partly Cloudy
3:00 PM 80 °F 46 °F 20% 29.92 in 6 mi NNW 3.5 mph - -   Scattered Clouds
3:00 PM 80.6 °F 46.4 °F 30% 30.01 in 6.2 mi Variable 3.5 mph - N/A   Partly Cloudy
3:30 PM 80.6 °F 44.6 °F 28% 29.98 in 6.2 mi NW 5.8 mph - N/A   Partly Cloudy
4:00 PM 78.8 °F 44.6 °F 30% 29.98 in 6.2 mi NW 6.9 mph - N/A   Partly Cloudy
4:30 PM 78.8 °F 44.6 °F 30% 29.98 in 6.2 mi West 9.2 mph - N/A   Partly Cloudy
5:00 PM 77.0 °F 44.6 °F 32% 29.98 in 6.2 mi West 9.2 mph - N/A   Partly Cloudy
5:30 PM 75.2 °F 44.6 °F 34% 30.01 in 6.2 mi West 5.8 mph - N/A   Partly Cloudy
5:47 PM 74 °F 45 °F 25% 29.94 in 6 mi West 5.8 mph - -   Scattered Clouds
6:00 PM 73.4 °F 44.6 °F 36% 30.01 in 6.2 mi West 4.6 mph - N/A   Partly Cloudy
6:30 PM 71.6 °F 41.0 °F 33% 30.01 in 5.6 mi NNW 3.5 mph - N/A   Partly Cloudy
7:00 PM 71.6 °F 44.6 °F 38% 30.04 in 6.2 mi North 10.4 mph - N/A   Partly Cloudy
7:30 PM 69.8 °F 46.4 °F 43% 30.04 in 6.2 mi North 9.2 mph - N/A   Partly Cloudy
8:00 PM 68.0 °F 46.4 °F 46% 30.04 in 6.2 mi NNE 9.2 mph - N/A   Partly Cloudy
8:30 PM 66.2 °F 46.4 °F 49% 30.06 in 6.2 mi NE 4.6 mph - N/A   Partly Cloudy
9:00 PM 64 °F 47 °F 44% 30.02 in 6 mi East 6.9 mph - -   Scattered Clouds
9:00 PM 64.4 °F 48.2 °F 56% 30.06 in 6.2 mi East 5.8 mph - N/A   Partly Cloudy
9:30 PM 62.6 °F 46.4 °F 55% 30.06 in 6.2 mi East 2.3 mph - N/A   Partly Cloudy
10:00 PM 62.6 °F 46.4 °F 55% 30.04 in 6.2 mi West 3.5 mph - N/A   Partly Cloudy
10:30 PM 62.6 °F 46.4 °F 55% 30.04 in 6.2 mi SSW 5.8 mph - N/A   Partly Cloudy
11:00 PM 59.0 °F 46.4 °F 63% 30.04 in 6.2 mi West 4.6 mph - N/A   Partly Cloudy
11:30 PM 57.2 °F 46.4 °F 67% 30.04 in 6.2 mi WSW 4.6 mph - N/A   Partly Cloudy